Date,TemperatureHighF,TemperatureAvgF,TemperatureLowF,DewpointHighF,DewpointAvgF,DewpointLowF,HumidityHigh,HumidityAvg,HumidityLow,PressureMaxIn,PressureMinIn,WindSpeedMaxMPH,WindSpeedAvgMPH,GustSpeedMaxMPH,PrecipitationSumIn
2014-1-1,72,57,45,44,33,26,58,40,29,30.10,30.02,5,1,7,0.00
2014-1-2,82,64,52,44,34,27,45,33,20,30.07,29.97,11,1,11,0.00
2014-1-3,76,61,50,46,38,31,55,43,26,30.01,29.88,8,1,8,0.00
2014-1-4,70,57,47,49,39,30,66,52,35,30.00,29.91,3,1,7,0.00
2014-1-5,81,62,47,43,30,16,69,35,12,30.11,29.99,8,2,18,0.00
2014-1-6,78,67,57,32,24,15,31,19,13,30.16,30.06,16,4,31,0.00
2014-1-7,73,60,49,38,30,19,45,33,20,30.11,30.01,7,1,9,0.00
2014-1-8,70,55,45,50,38,23,80,54,34,30.10,29.98,10,1,10,0.00
2014-1-9,62,52,44,51,45,38,88,79,63,30.08,29.95,11,1,11,0.00
2014-1-10,73,57,45,53,45,38,85,65,42,30.11,30.00,7,1,7,0.00
2014-1-11,76,60,49,49,41,32,66,49,32,30.13,30.01,7,1,7,0.00
2014-1-12,68,57,44,49,41,23,74,57,22,30.13,30.01,22,1,22,0.00
2014-1-13,84,70,59,34,25,20,25,19,14,30.27,30.10,32,6,32,0.00
2014-1-14,85,72,62,37,24,20,24,17,12,30.27,30.15,28,5,28,0.00
2014-1-15,87,74,63,40,28,21,27,18,13,30.18,30.05,26,4,26,0.00
2014-1-16,88,73,61,35,23,17,25,16,11,30.09,30.00,19,3,19,0.00
2014-1-17,87,72,58,39,25,18,29,18,12,30.08,29.98,22,3,22,0.00
2014-1-18,82,66,54,38,26,17,33,23,15,30.07,29.97,9,1,9,0.00
2014-1-19,82,65,56,39,28,18,37,25,16,30.09,30.01,9,1,10,0.00
2014-1-20,80,64,51,41,31,22,48,29,18,30.14,30.03,10,1,10,0.00
2014-1-21,79,64,54,40,28,21,34,26,18,30.13,30.03,6,0,6,0.00
2014-1-22,79,63,47,48,37,22,70,41,20,30.03,29.86,10,1,10,0.00
2014-1-23,75,58,47,48,38,24,82,48,29,30.07,29.86,6,1,9,0.00
2014-1-24,71,61,52,46,38,25,76,44,21,30.20,30.05,12,0,12,0.00
2014-1-25,75,64,54,48,38,30,52,39,23,30.20,30.07,12,1,12,0.00
2014-1-26,68,58,50,48,42,35,79,56,40,30.12,30.00,9,1,9,0.00
2014-1-27,71,57,48,53,47,39,82,69,49,30.09,29.97,12,1,12,0.00
2014-1-28,74,58,45,54,46,35,81,66,48,30.11,30.00,10,1,10,0.00
2014-1-29,79,61,49,52,45,32,88,59,32,30.06,29.92,9,1,9,0.00
2014-1-30,61,54,48,52,50,45,91,85,68,29.96,29.87,11,1,11,0.02
2014-1-31,59,52,44,50,46,34,92,81,64,29.97,29.87,11,1,11,0.05
2014-2-1,66,51,42,42,30,18,76,48,20,30.05,29.93,24,3,24,0.00
2014-2-2,62,51,43,45,34,19,86,54,26,30.08,29.93,11,2,14,0.07
2014-2-3,61,50,41,46,42,36,90,75,52,29.99,29.87,15,2,15,0.07
2014-2-4,45,44,44,36,36,35,71,71,71,29.98,29.97,6,3,7,0.00
2014-2-5,63,52,44,45,41,37,80,69,47,30.10,29.99,5,2,12,0.00
2014-2-6,58,52,48,49,46,40,91,80,68,30.07,29.97,13,2,13,0.18
2014-2-7,63,53,49,53,49,45,92,84,62,30.20,30.01,12,1,12,0.03
2014-2-8,66,54,46,51,46,41,86,75,52,30.25,30.16,13,2,13,0.00
2014-2-9,65,56,48,53,49,44,87,78,62,30.21,30.08,12,2,12,0.00
2014-2-10,69,56,47,55,49,44,89,78,59,30.13,29.99,13,1,13,0.00
2014-2-11,79,59,47,55,46,38,88,66,33,30.07,30.00,9,1,10,0.00
2014-2-12,82,68,56,50,41,33,49,37,27,30.11,30.00,10,2,10,0.00
2014-2-13,86,67,53,47,39,31,47,36,22,30.05,29.94,10,1,10,0.00
2014-2-14,85,67,53,50,40,30,51,38,22,30.03,29.93,9,1,9,0.00
2014-2-15,85,67,57,51,38,28,48,34,24,30.00,29.90,10,1,10,0.00
2014-2-16,80,63,53,53,42,26,73,47,30,30.05,29.92,9,1,9,0.00
2014-2-17,74,60,51,55,46,34,87,60,41,30.05,29.95,11,2,11,0.00
2014-2-18,70,56,47,52,48,42,86,75,52,30.06,29.93,9,1,9,0.00
2014-2-19,67,54,47,54,48,40,90,80,57,30.02,29.87,10,1,11,0.00
2014-2-20,83,63,46,54,43,32,85,51,28,30.01,29.92,10,1,10,0.00
2014-2-21,80,65,53,47,38,32,58,37,24,29.96,29.84,11,2,11,0.00
2014-2-22,75,60,49,46,37,28,61,43,28,29.91,29.84,9,1,9,0.00
2014-2-23,76,60,47,50,38,27,64,46,27,29.97,29.88,11,1,11,0.00
2014-2-24,76,59,46,52,44,33,87,62,34,30.01,29.90,12,1,12,0.00
2014-2-25,72,57,44,54,48,38,86,72,44,30.03,29.93,14,2,14,0.00
2014-2-26,64,57,49,52,48,42,81,73,54,30.07,29.99,14,1,14,0.00
2014-2-27,70,59,54,59,52,42,92,79,49,30.02,29.84,12,1,12,0.32
2014-2-28,59,55,51,57,53,49,93,91,79,29.85,29.64,31,5,31,2.05
2014-3-1,59,53,49,54,50,46,93,89,76,29.95,29.75,19,2,19,0.63
2014-3-2,59,52,47,53,49,45,93,89,75,30.15,29.95,13,1,13,0.23
2014-3-3,68,55,45,56,49,43,92,81,61,30.12,30.00,13,1,13,0.01
2014-3-4,66,55,48,55,50,45,91,82,64,30.05,29.93,10,1,10,0.00
2014-3-5,76,61,48,60,53,44,89,75,52,30.06,29.97,11,1,11,0.01
2014-3-6,73,61,51,59,54,43,92,78,60,30.08,29.94,9,1,12,0.00
2014-3-7,68,60,53,57,52,44,91,75,62,29.99,29.88,10,1,10,0.00
2014-3-8,86,69,51,44,36,26,76,33,15,30.09,29.93,17,2,17,0.00
2014-3-9,86,72,61,43,32,25,34,24,16,30.12,30.01,22,4,22,0.00
2014-3-10,81,67,56,47,36,29,53,32,20,30.05,29.95,13,2,13,0.00
2014-3-11,75,61,52,52,41,29,86,50,31,29.98,29.88,10,1,10,0.00
2014-3-12,82,60,49,54,44,32,88,61,18,29.99,29.89,18,3,26,0.00
2014-3-13,70,58,51,53,49,45,85,74,51,30.00,29.88,13,1,13,0.00
2014-3-14,74,58,46,54,47,39,86,68,42,30.10,29.99,11,2,11,0.00
2014-3-15,89,64,48,58,47,36,83,58,21,30.18,30.07,13,2,13,0.00
2014-3-16,88,71,56,46,35,26,43,28,16,30.20,30.05,13,2,13,0.00
2014-3-17,77,63,53,57,42,25,85,49,27,30.05,29.77,13,2,13,0.00
2014-3-18,75,59,49,56,49,42,87,72,45,29.91,29.77,12,1,12,0.00
2014-3-19,78,60,47,55,48,36,87,65,35,30.03,29.91,12,2,12,0.00
2014-3-20,76,61,51,54,43,32,84,55,31,30.02,29.90,11,1,11,0.00
2014-3-21,68,57,49,53,47,40,84,70,54,29.99,29.91,12,2,12,0.00
2014-3-22,70,57,49,52,48,44,83,72,50,30.08,29.97,16,1,16,0.00
2014-3-23,69,58,49,55,50,44,87,75,57,30.12,29.99,12,1,12,0.00
2014-3-24,66,58,53,56,52,49,87,82,69,30.10,29.97,12,1,12,0.00
2014-3-25,64,56,54,55,51,49,89,83,68,30.01,29.88,11,1,11,0.00
2014-3-26,61,55,52,52,49,46,91,82,62,29.98,29.87,14,4,19,0.08
2014-3-27,64,55,49,51,47,42,95,75,53,30.09,29.96,14,2,14,0.02
2014-3-28,70,57,47,55,47,41,83,71,50,30.15,30.05,12,2,12,0.00
2014-3-29,77,61,50,56,49,43,83,68,43,30.12,29.95,12,1,12,0.01
2014-3-30,70,59,51,52,47,36,87,66,43,30.03,29.94,16,2,16,0.00
2014-3-31,67,54,45,52,44,36,82,68,54,30.02,29.96,15,2,15,0.00
2014-4-1,62,53,49,47,44,38,90,72,46,30.01,29.93,16,3,16,0.26
2014-4-2,59,51,44,47,43,38,90,76,53,30.07,29.92,20,3,20,0.18
2014-4-3,68,54,43,50,42,35,79,65,45,30.12,30.02,14,2,14,0.00
2014-4-4,65,53,46,50,42,33,82,66,52,30.03,29.93,11,2,13,0.00
2014-4-5,66,55,46,51,43,35,79,65,54,30.03,29.91,13,2,13,0.00
2014-4-6,85,64,48,48,40,36,73,46,19,30.07,29.98,18,3,22,0.00
2014-4-7,86,70,55,54,42,35,53,37,23,30.07,30.00,12,2,12,0.00
2014-4-8,90,74,61,50,40,29,39,29,18,30.07,29.96,12,2,12,0.00
2014-4-9,88,73,62,53,35,20,35,25,17,30.00,29.90,13,3,13,0.00
2014-4-10,87,70,57,53,35,20,46,28,17,29.94,29.87,12,1,12,0.00
2014-4-11,84,67,53,51,40,24,87,41,17,29.92,29.81,17,2,17,0.00
2014-4-12,68,58,53,53,48,44,87,71,57,29.95,29.84,15,2,15,0.00
2014-4-13,68,58,53,53,49,46,80,71,53,30.01,29.92,16,2,16,0.00
2014-4-14,82,65,48,56,47,36,88,58,25,30.03,29.96,14,2,14,0.00
2014-4-15,79,64,51,58,47,36,88,55,26,30.00,29.80,12,1,12,0.00
2014-4-16,77,60,50,57,51,46,92,73,44,29.86,29.76,12,1,12,0.00
2014-4-17,72,59,53,58,52,49,88,79,60,29.91,29.81,14,2,14,0.00
2014-4-18,72,61,56,57,52,49,85,75,57,29.92,29.83,13,1,13,0.00
2014-4-19,74,61,51,58,52,47,87,73,54,30.03,29.90,9,1,13,0.00
2014-4-20,80,64,50,60,53,46,88,70,44,30.03,29.97,12,1,12,0.00
2014-4-21,82,64,50,61,54,46,88,72,37,30.02,29.92,11,1,11,0.00
2014-4-22,71,60,52,57,52,46,89,76,51,29.97,29.86,16,2,16,0.00
2014-4-23,72,59,48,56,48,43,83,67,51,29.95,29.87,13,2,13,0.00
2014-4-24,79,62,50,54,48,42,77,62,41,29.97,29.88,14,2,14,0.00
2014-4-25,70,58,49,57,50,43,90,75,54,29.92,29.77,16,3,16,0.34
2014-4-26,63,54,47,50,45,39,91,72,48,29.99,29.75,30,3,30,0.20
2014-4-27,70,58,50,53,47,43,83,68,50,30.00,29.93,14,2,14,0.00
2014-4-28,78,63,49,58,49,42,79,62,44,30.00,29.86,14,2,14,0.00
2014-4-29,93,78,59,50,34,26,69,23,13,30.00,29.91,20,4,25,0.00
2014-4-30,91,77,64,35,28,21,26,16,12,29.99,29.88,31,6,31,0.00
2014-5-1,98,78,66,40,32,21,32,19,10,30.02,29.90,20,3,20,0.00
2014-5-2,94,78,63,51,37,26,36,23,13,29.95,29.85,13,2,14,0.00
2014-5-3,91,76,62,51,41,28,46,30,19,29.89,29.83,11,2,11,0.00
2014-5-4,84,66,56,59,43,28,86,46,23,29.97,29.87,10,1,10,0.00
2014-5-5,71,60,52,57,52,48,89,75,55,29.99,29.89,15,2,15,0.00
2014-5-6,64,56,52,52,48,44,84,73,56,29.89,29.82,18,3,18,0.00
2014-5-7,67,58,52,54,50,47,85,74,59,29.99,29.85,17,3,17,0.00
2014-5-8,71,60,51,55,49,45,82,68,49,30.04,29.96,14,1,14,0.00
2014-5-9,73,61,50,58,51,45,87,71,53,30.06,29.95,14,2,14,0.00
2014-5-10,73,62,53,58,53,48,88,75,55,29.95,29.79,14,2,15,0.00
2014-5-11,85,65,49,49,38,23,85,46,11,29.93,29.81,27,3,27,0.00
2014-5-12,94,75,58,43,33,27,41,23,13,29.99,29.90,19,3,19,0.00
2014-5-13,97,81,64,42,32,23,31,18,12,30.05,29.94,25,5,25,0.00
2014-5-14,102,84,73,44,32,23,22,15,10,30.01,29.90,46,6,46,0.00
2014-5-15,102,85,72,49,34,28,23,17,10,29.97,29.89,16,4,16,0.00
2014-5-16,96,81,69,50,40,28,44,24,14,29.94,29.84,13,2,13,0.00
2014-5-17,84,71,60,63,53,39,87,55,35,29.87,29.80,11,2,11,0.00
2014-5-18,79,65,57,61,56,51,88,73,52,29.87,29.81,13,2,13,0.00
2014-5-19,72,63,53,58,53,46,87,70,53,29.92,29.84,18,2,18,0.00
2014-5-20,68,60,54,54,50,47,86,71,52,29.98,29.91,12,3,17,0.00
2014-5-21,71,60,50,55,50,42,81,69,51,29.98,29.91,15,2,15,0.00
2014-5-22,64,60,57,55,52,50,85,77,65,30.00,29.90,10,1,10,0.00
2014-5-23,72,63,57,59,54,51,85,73,59,30.00,29.92,15,2,15,0.00
2014-5-24,64,60,58,57,55,54,90,85,76,30.00,29.92,5,1,6,0.02
2014-5-25,80,66,57,63,58,54,91,78,54,29.96,29.84,13,1,13,0.01
2014-5-26,85,70,60,66,60,55,88,72,49,29.95,29.86,13,1,13,0.00
2014-5-27,85,69,60,66,60,56,89,74,48,29.94,29.86,12,1,12,0.00
2014-5-28,83,67,59,64,58,55,90,76,49,29.90,29.80,11,1,11,0.00
2014-5-29,81,67,58,64,57,49,88,72,52,29.89,29.83,12,1,12,0.00
2014-5-30,85,68,53,64,55,43,83,64,41,29.86,29.80,12,1,12,0.00
2014-5-31,86,68,53,62,52,35,80,58,36,29.88,29.82,14,1,14,0.00
2014-6-1,86,68,52,63,51,34,81,55,40,29.87,29.78,11,1,11,0.00
2014-6-2,81,66,54,62,54,41,88,66,43,29.87,29.78,12,1,12,0.00
2014-6-3,86,69,53,58,52,43,87,58,30,29.90,29.78,13,1,13,0.00
2014-6-4,84,69,52,60,52,40,86,57,30,29.84,29.76,11,1,11,0.00
2014-6-5,85,68,53,62,54,40,90,65,40,29.84,29.75,12,1,12,0.00
2014-6-6,80,66,56,63,57,51,91,75,54,29.83,29.76,12,1,12,0.00
2014-6-7,79,66,58,62,57,53,86,73,53,29.83,29.73,11,1,11,0.00
2014-6-8,84,69,59,65,59,54,87,71,50,29.81,29.71,11,1,11,0.00
2014-6-9,86,67,58,67,60,54,91,78,51,29.80,29.72,12,1,12,0.00
2014-6-10,74,65,60,63,58,54,89,79,63,29.88,29.73,13,2,13,0.00
2014-6-11,82,67,58,63,57,52,86,70,49,29.90,29.83,13,1,13,0.00
2014-6-12,60,60,59,56,55,54,85,85,84,29.89,29.88,6,0,6,0.00
2014-6-13,80,68,56,61,57,49,86,67,48,29.92,29.84,12,2,12,0.00
2014-6-14,82,66,54,62,55,47,86,69,45,29.88,29.79,14,2,14,0.00
2014-6-15,80,66,58,62,56,52,85,71,48,29.86,29.80,13,2,13,0.00
2014-6-16,79,66,58,61,55,50,85,69,50,29.91,29.83,13,2,13,0.00
2014-6-17,76,64,55,59,52,45,85,66,44,29.92,29.85,16,3,16,0.00
2014-6-18,77,64,51,59,51,40,83,65,46,29.92,29.86,14,3,14,0.00
2014-6-19,85,70,52,64,56,45,86,62,42,29.93,29.86,13,2,13,0.00
2014-6-20,88,70,55,65,57,50,85,66,44,29.90,29.84,14,2,14,0.00
2014-6-21,86,69,57,66,57,48,87,68,43,29.88,29.81,12,2,12,0.00
2014-6-22,81,67,57,63,57,52,87,72,51,29.91,29.84,13,2,13,0.00
2014-6-23,80,67,57,62,57,52,87,74,54,29.93,29.85,14,2,14,0.00
2014-6-24,81,68,58,65,59,54,92,75,53,29.95,29.85,13,2,13,0.00
2014-6-25,81,68,59,65,59,56,89,75,55,29.90,29.81,14,2,14,0.00
2014-6-26,82,68,60,66,60,56,89,77,53,29.89,29.82,14,2,14,0.00
2014-6-27,78,68,61,65,60,56,88,76,61,29.86,29.80,15,2,15,0.00
2014-6-28,81,68,60,66,60,56,89,78,59,29.85,29.77,15,2,15,0.00
2014-6-29,86,69,60,68,61,57,89,76,52,29.87,29.80,14,2,14,0.00
2014-6-30,82,69,62,67,61,58,88,76,56,29.89,29.79,13,2,13,0.00
2014-7-1,85,69,60,69,61,56,91,78,55,29.87,29.77,13,2,13,0.00
2014-7-2,85,72,63,69,63,59,89,75,55,29.88,29.79,14,1,14,0.00
2014-7-3,91,73,58,68,62,56,92,71,40,29.92,29.79,12,1,12,0.00
2014-7-4,90,75,62,68,61,55,86,65,33,29.97,29.86,13,2,13,0.00
2014-7-5,92,78,66,64,58,50,81,52,32,30.00,29.93,13,2,13,0.00
2014-7-6,91,78,66,64,53,47,64,43,24,29.99,29.86,14,2,14,0.00
2014-7-7,91,75,64,67,56,46,84,54,33,29.90,29.82,13,2,13,0.00
2014-7-8,88,71,59,68,62,55,90,73,49,29.94,29.84,13,2,13,0.00
2014-7-9,88,72,62,68,62,58,88,73,47,29.94,29.84,13,2,13,0.00
2014-7-10,87,72,63,68,62,58,87,71,47,29.95,29.84,14,2,14,0.00
2014-7-11,85,72,62,65,60,55,88,69,45,29.97,29.90,12,2,12,0.00
2014-7-12,84,71,59,66,60,53,86,70,47,29.98,29.88,15,2,15,0.00
2014-7-13,87,72,62,70,62,57,85,73,52,29.91,29.83,12,1,12,0.00
2014-7-14,83,71,64,69,63,60,89,78,61,29.98,29.86,15,2,15,0.00
2014-7-15,80,69,65,68,63,60,89,80,65,30.02,29.94,14,2,14,0.00
2014-7-16,82,71,63,66,61,58,88,74,53,30.03,29.92,14,2,14,0.00
2014-7-17,79,69,62,63,58,55,84,70,52,30.03,29.94,17,2,17,0.00
2014-7-18,81,68,57,64,57,52,85,71,53,30.01,29.92,15,2,15,0.00
2014-7-19,78,67,60,65,59,54,85,77,61,29.97,29.88,12,1,12,0.00
2014-7-20,83,70,62,67,61,57,88,74,55,29.98,29.90,15,2,15,0.00
2014-7-21,82,69,58,66,60,54,86,73,54,30.05,29.95,14,2,14,0.00
2014-7-22,87,72,59,67,60,54,87,67,43,30.03,29.94,15,2,15,0.00
2014-7-23,92,76,61,65,57,50,75,54,35,29.98,29.85,12,1,12,0.00
2014-7-24,97,80,63,66,58,44,77,50,26,29.86,29.71,12,1,12,0.00
2014-7-25,92,75,66,69,64,61,89,71,45,29.89,29.80,12,1,12,0.00
2014-7-26,89,75,65,70,64,59,86,70,49,29.95,29.85,13,2,13,0.00
2014-7-27,94,77,66,69,63,58,87,65,34,29.99,29.87,14,2,14,0.00
2014-7-28,92,78,67,64,57,45,83,52,23,30.04,29.92,15,2,15,0.02
2014-7-29,91,78,66,61,54,48,62,45,29,30.01,29.90,11,1,11,0.00
2014-7-30,94,78,65,70,61,53,72,56,38,29.94,29.84,14,1,14,0.00
2014-7-31,92,77,66,70,62,56,86,62,43,29.90,29.80,13,2,13,0.00
2014-8-1,92,74,64,72,64,60,89,72,48,29.89,29.82,12,1,12,0.00
2014-8-2,88,73,63,69,64,60,90,75,45,29.94,29.82,18,1,18,0.00
2014-8-3,88,74,67,72,67,64,92,79,58,29.93,29.84,16,2,16,0.64
2014-8-4,87,75,65,70,64,50,93,73,45,29.97,29.88,13,1,13,0.01
2014-8-5,88,71,56,66,56,44,81,60,36,30.00,29.93,15,1,15,0.00
2014-8-6,81,69,59,63,58,51,85,70,49,30.03,29.92,13,2,13,0.00
2014-8-7,81,68,58,64,59,52,88,74,54,29.98,29.85,14,2,14,0.00
2014-8-8,84,70,64,66,62,58,87,75,54,29.92,29.84,14,2,14,0.00
2014-8-9,85,71,63,68,63,58,89,76,55,29.94,29.88,14,2,14,0.00
2014-8-10,88,73,61,67,62,57,89,71,45,29.95,29.87,13,1,13,0.00
2014-8-11,88,74,62,67,62,58,88,70,46,29.93,29.86,11,1,11,0.00
2014-8-12,86,72,63,68,62,59,89,73,50,29.96,29.86,14,2,14,0.00
2014-8-13,86,71,62,68,62,59,92,76,51,29.97,29.86,16,1,16,0.00
2014-8-14,90,73,61,68,61,55,90,69,43,29.94,29.86,12,1,12,0.00
2014-8-15,93,77,62,67,58,46,77,54,40,29.95,29.88,14,1,14,0.00
2014-8-16,92,78,66,65,58,51,73,51,29,29.97,29.88,13,2,13,0.00
2014-8-17,92,78,65,62,57,51,68,51,31,29.94,29.81,12,1,12,0.00
2014-8-18,90,72,61,69,62,51,88,71,43,29.86,29.75,13,2,13,0.00
2014-8-19,81,69,63,65,60,58,88,75,57,29.87,29.81,16,3,16,0.00
2014-8-20,81,69,60,65,60,54,86,73,54,29.92,29.84,15,2,15,0.00
2014-8-21,83,71,61,67,61,56,88,73,54,29.93,29.84,14,2,14,0.00
2014-8-22,85,72,62,67,61,49,88,72,31,29.94,29.88,14,2,14,0.00
2014-8-23,83,70,57,63,57,49,87,66,36,29.94,29.83,11,2,12,0.00
2014-8-24,86,70,56,64,57,46,86,67,39,29.89,29.80,14,1,14,0.00
2014-8-25,86,72,61,65,60,54,86,67,46,29.90,29.81,12,2,12,0.00
2014-8-26,87,76,61,65,60,55,83,61,41,29.95,29.88,13,2,13,0.00
2014-8-27,92,78,65,62,54,45,68,44,27,30.00,29.93,14,2,14,0.00
2014-8-28,93,80,68,62,56,44,62,44,31,29.97,29.85,15,2,15,0.00
2014-8-29,94,76,64,67,57,47,78,53,35,29.86,29.76,12,2,12,0.00
2014-8-30,92,75,59,66,60,50,83,62,37,29.81,29.71,11,1,11,0.00
2014-8-31,89,74,61,66,62,54,90,70,40,29.80,29.74,9,2,12,0.00
2014-9-1,86,71,59,67,61,52,89,72,47,29.81,29.74,12,1,12,0.00
2014-9-2,86,72,60,68,62,52,89,72,50,29.84,29.74,13,2,13,0.00
2014-9-3,84,72,64,67,62,58,88,74,52,29.78,29.67,15,2,15,0.00
2014-9-4,83,71,62,66,62,55,86,74,54,29.77,29.68,13,2,14,0.00
2014-9-5,87,71,59,68,61,54,90,74,51,29.87,29.76,12,1,12,0.00
2014-9-6,94,77,63,70,64,54,86,66,42,29.89,29.76,12,1,13,0.00
2014-9-7,95,82,72,68,59,50,67,47,33,29.79,29.70,14,2,14,0.00
2014-9-8,89,77,71,65,60,50,81,57,33,29.85,29.76,12,1,13,0.00
2014-9-9,88,77,66,62,56,50,67,50,32,29.90,29.81,13,2,13,0.00
2014-9-10,91,75,61,63,54,44,70,50,33,29.89,29.76,13,1,13,0.00
2014-9-11,92,78,67,66,58,54,69,52,35,29.83,29.75,12,2,13,0.00
2014-9-12,94,79,66,68,60,51,68,53,38,29.81,29.70,13,1,13,0.00
2014-9-13,96,82,68,68,59,50,66,47,30,29.75,29.65,12,1,15,0.00
2014-9-14,102,87,73,70,60,52,61,42,28,29.72,29.64,13,1,14,0.00
2014-9-15,99,85,72,69,63,58,70,49,32,29.76,29.68,14,1,14,0.00
2014-9-16,102,84,74,68,62,56,65,49,30,29.75,29.65,33,2,38,0.03
2014-9-17,95,84,71,70,64,56,71,52,38,29.75,29.66,14,2,15,0.00
2014-9-18,82,72,63,67,62,57,86,73,55,29.86,29.75,16,2,16,0.00
2014-9-19,82,71,63,65,62,57,85,73,55,29.88,29.79,13,2,16,0.00
2014-9-20,80,68,62,66,61,57,87,78,59,29.93,29.84,10,1,12,0.00
2014-9-21,82,69,60,64,60,54,85,72,52,29.97,29.88,12,2,13,0.00
2014-9-22,86,70,58,66,59,51,83,70,48,29.96,29.87,10,1,12,0.00
2014-9-23,91,72,59,66,56,44,75,59,38,29.95,29.84,11,1,11,0.00
2014-9-24,93,79,63,63,56,50,73,47,27,29.89,29.79,13,2,13,0.00
2014-9-25,92,78,67,64,56,50,72,49,26,29.90,29.82,12,2,14,0.00
2014-9-26,84,72,62,64,60,55,85,67,40,29.86,29.78,11,2,12,0.00
2014-9-27,77,64,56,60,54,47,85,69,53,29.88,29.77,15,2,16,0.00
2014-9-28,75,65,57,60,56,50,84,72,50,29.91,29.82,15,3,15,0.00
2014-9-29,79,67,56,61,56,49,82,70,52,29.92,29.80,15,2,17,0.00
2014-9-30,86,71,59,61,54,45,84,57,32,29.85,29.73,12,2,12,0.00
2014-10-1,83,69,58,64,57,46,84,67,48,29.85,29.73,10,1,13,0.00
2014-10-2,102,80,62,56,42,33,81,29,12,29.94,29.83,21,4,22,0.00
2014-10-3,98,81,65,48,37,28,31,21,10,29.99,29.89,12,2,16,0.00
2014-10-4,98,81,70,53,40,29,42,23,15,29.92,29.81,11,2,12,0.00
2014-10-5,94,77,67,56,41,31,41,28,18,29.87,29.80,12,2,12,0.00
2014-10-6,95,79,66,51,41,33,37,26,17,29.89,29.78,12,2,12,0.00
2014-10-7,95,77,65,58,44,35,69,33,16,29.88,29.77,13,1,13,0.00
2014-10-8,88,73,63,60,51,39,88,49,21,29.85,29.77,12,2,12,0.00
2014-10-9,79,67,59,63,58,52,88,73,54,29.92,29.84,12,2,12,0.00
2014-10-10,82,68,55,64,59,50,88,73,48,29.97,29.88,11,1,11,0.00
2014-10-11,85,68,58,64,59,54,91,76,44,29.98,29.85,11,1,11,0.00
2014-10-12,82,66,56,65,58,51,92,77,50,29.91,29.82,11,1,11,0.00
2014-10-13,86,68,55,65,60,52,92,77,46,30.00,29.90,10,1,10,0.00
2014-10-14,80,66,56,63,58,53,92,79,52,30.01,29.88,13,1,13,0.00
2014-10-15,78,67,59,59,56,52,84,70,49,29.99,29.90,13,1,13,0.00
2014-10-16,77,66,58,60,56,52,83,70,52,30.00,29.89,13,2,13,0.00
2014-10-17,77,65,58,61,56,52,83,75,53,29.97,29.88,13,2,13,0.00
2014-10-18,78,66,58,61,56,52,83,73,54,29.92,29.80,13,1,13,0.00
2014-10-19,79,66,56,63,56,50,85,72,51,29.90,29.80,11,1,11,0.00
2014-10-20,78,65,56,64,58,52,90,79,59,29.93,29.83,11,1,11,0.00
2014-10-21,80,65,53,62,56,41,88,72,48,29.91,29.80,9,1,12,0.00
2014-10-22,84,68,54,60,49,34,63,50,34,29.93,29.84,11,1,11,0.00
2014-10-23,88,72,60,59,50,38,62,46,31,29.97,29.88,9,1,9,0.00
2014-10-24,90,74,60,54,43,36,59,34,22,29.97,29.89,11,2,11,0.00
2014-10-25,84,70,59,62,52,42,81,55,33,30.02,29.93,14,1,14,0.00
2014-10-26,76,63,56,62,54,46,86,73,53,30.00,29.86,12,2,12,0.00
2014-10-27,76,63,53,60,53,48,86,72,50,29.93,29.84,8,1,12,0.00
2014-10-28,81,66,54,62,55,48,83,69,46,30.00,29.92,10,1,10,0.00
2014-10-29,86,70,57,58,50,41,72,52,29,30.01,29.92,12,1,12,0.00
2014-10-30,83,66,56,62,51,39,85,60,35,29.97,29.90,13,1,13,0.00
2014-10-31,71,63,57,58,53,46,84,71,58,29.95,29.85,11,1,11,0.00
2014-11-2,67,57,48,51,47,43,87,70,49,30.05,29.97,12,2,12,0.02
2014-11-3,77,60,48,47,38,24,78,48,19,30.12,30.04,15,2,15,0.00
2014-11-4,84,66,53,40,30,21,44,28,14,30.16,30.04,16,1,16,0.00
2014-11-5,92,72,54,47,32,19,36,24,12,30.08,29.98,24,2,24,0.00
2014-11-6,88,75,62,46,36,28,35,25,17,30.13,30.02,14,2,14,0.00
2014-11-7,88,74,63,47,37,30,38,27,19,30.09,29.94,12,2,12,0.00
2014-11-8,88,73,60,48,40,32,42,31,20,30.02,29.92,11,1,11,0.00
2014-11-9,83,67,56,58,48,35,90,55,32,29.95,29.78,10,1,10,0.00
2014-11-10,72,61,55,57,53,50,90,76,54,29.87,29.80,11,1,11,0.00
2014-11-11,65,61,58,54,52,48,82,72,62,29.94,29.86,7,1,10,0.00
2014-11-12,70,60,53,55,52,48,84,76,53,30.01,29.90,11,1,11,0.00
2014-11-13,70,60,52,56,52,47,85,74,55,30.07,29.97,11,1,13,0.00
2014-11-14,69,61,56,60,55,50,91,83,68,30.02,29.93,13,1,13,0.06
2014-11-15,71,60,52,58,53,48,88,80,58,30.07,29.97,13,2,13,0.00
2014-11-16,75,62,52,51,28,9,89,37,12,30.14,30.00,24,3,24,0.00
2014-11-17,82,67,58,37,22,10,27,18,12,30.14,30.02,28,4,28,0.00
2014-11-18,80,64,53,38,27,17,40,26,15,30.14,30.02,19,1,19,0.00
2014-11-19,73,59,50,50,36,24,67,42,26,30.13,30.04,11,1,11,0.00
2014-11-20,70,58,49,55,46,28,88,65,43,30.10,29.94,10,2,14,0.00
2014-11-21,71,60,53,55,51,43,90,74,52,30.04,29.90,13,1,13,0.03
2014-11-22,73,60,50,55,48,40,83,66,43,30.09,29.99,12,1,12,0.00
2014-11-23,80,62,50,52,36,17,87,44,15,30.12,30.00,24,3,24,0.00
2014-11-24,82,66,53,33,24,17,32,21,14,30.28,30.09,24,3,24,0.00
2014-11-25,80,65,54,36,26,16,36,23,14,30.36,30.22,18,2,18,0.00
2014-11-26,87,70,55,47,33,23,38,26,18,30.23,30.07,13,1,13,0.00
2014-11-27,89,73,62,45,33,25,31,23,17,30.08,29.96,10,2,10,0.00
2014-11-28,84,69,56,46,35,27,41,29,19,29.97,29.84,11,1,11,0.00
2014-11-29,76,60,50,53,40,29,83,49,26,29.90,29.81,12,1,12,0.00
2014-11-30,65,60,50,56,52,33,86,77,52,30.00,29.87,18,3,18,0.03
2014-12-1,68,61,52,58,52,44,90,73,55,30.14,29.98,10,1,10,0.00
2014-12-2,64,59,55,57,52,45,91,79,53,29.99,29.87,17,2,17,0.79
2014-12-3,66,62,58,62,59,55,93,91,86,29.98,29.88,12,1,12,0.85
2014-12-4,70,61,53,60,56,49,94,85,61,30.06,29.90,11,1,11,0.15
2014-12-5,67,59,53,57,53,48,89,80,63,30.12,30.02,8,1,8,0.00
2014-12-6,71,60,52,57,53,48,89,78,57,30.19,30.11,12,1,12,0.01
2014-12-7,76,63,53,57,51,46,86,65,41,30.17,30.05,13,2,13,0.00
2014-12-8,79,64,55,56,49,44,71,58,38,30.08,29.99,7,1,7,0.00
2014-12-9,79,63,52,57,47,39,71,56,37,30.10,29.95,11,1,11,0.00
2014-12-10,72,60,50,55,49,39,87,68,49,30.01,29.92,7,1,7,0.00
2014-12-11,68,59,54,56,53,49,92,81,64,29.99,29.87,14,2,14,0.00
2014-12-12,59,54,48,53,50,46,92,88,74,30.08,29.84,13,2,25,1.33
2014-12-13,62,52,46,53,45,40,94,78,51,30.13,30.06,9,1,11,0.01
2014-12-14,64,55,46,48,44,40,80,67,51,30.10,30.03,10,1,10,0.00
2014-12-15,64,53,46,48,43,38,80,68,52,30.08,29.95,10,1,10,0.00
2014-12-16,58,54,49,52,48,43,89,82,76,30.02,29.94,12,1,12,0.21
2014-12-17,61,53,49,54,48,42,92,82,71,30.11,29.94,16,2,16,0.29
2014-12-18,64,53,47,50,46,42,87,76,54,30.19,30.09,10,1,10,0.00
2014-12-19,67,54,47,50,45,41,83,73,49,30.23,30.13,12,1,12,0.00
2014-12-20,64,53,46,52,47,40,85,78,62,30.19,30.10,11,1,11,0.00
2014-12-21,70,57,48,57,50,45,89,80,63,30.14,30.01,9,1,9,0.00
2014-12-22,81,62,51,57,50,44,87,67,38,30.04,29.92,10,1,10,0.00
2014-12-23,85,68,55,51,44,37,80,47,23,30.05,29.95,18,2,18,0.00
2014-12-24,74,62,52,47,40,34,73,46,33,30.06,29.79,11,1,11,0.00
2014-12-25,67,57,49,51,35,19,87,50,25,29.88,29.74,25,4,25,0.00
2014-12-26,66,54,49,29,20,16,31,26,20,30.16,29.87,25,4,25,0.00
2014-12-27,64,51,40,31,22,17,45,33,20,30.33,30.15,18,2,18,0.00
2014-12-28,63,50,42,36,28,19,57,43,28,30.27,30.15,10,2,10,0.00
2014-12-29,64,50,42,46,37,28,79,63,49,30.15,30.02,10,2,10,0.00
2014-12-30,43,43,43,35,35,35,75,75,75,30.03,30.03,1,1,5,0.00
2014-12-31,53,42,36,33,23,16,84,48,28,30.08,29.86,21,8,42,0.09
2015-1-1,57,45,36,35,30,22,71,56,37,30.16,30.05,6,3,12,0.00
2015-1-2,60,46,36,42,34,24,76,62,48,30.17,30.05,5,2,12,0.00